Location: Kerguer�zec
(48.4509°N, 4.7600°W)
Time: 11:02:27
(UTC+00:00)

Cosmos 468 Rocket - Pass Details

Date: 09 April 2020
Orbit: 745 x 779 km, 74.0° (Epoch: 25 May)

Event Time Altitude Azimuth Distance (km) Brightness Sun altitude
Rises 20:32:28 0° 339° (NNW) 3,221 8.1 -14.7°
Reaches altitude 10° 20:34:54 10° 345° (NNW) 2,287 7.1 -15.0°
Maximum altitude 20:39:58 53° 62° (ENE) 922 4.2 -15.8°
Enters shadow 20:42:35 27° 127° (SE) 1,416 4.8 -16.1°
